Weather in Antsiranana

Madagascar     12°18′41″S   49°17′26″E
temp.,
°C
wind,
m/s
gust,
m/s
humid.,
%
clouds,
%
prec.,
mm/h
press.,
hPa
HPBL,
m
19 april, mon
mon1900:00+25se613836 0.1 1014817
03:00+25se6138311 0.1 1013890
06:00+25se614817 0.0 1014941
09:00+28se8137010 0.0 10141211
12:00+29ese812688 0.4 10121291
15:00+29ese7126591 0.5 10111432
18:00+26se6127442 0.0 10121047
21:00+25se61378100 0.0 1014859
20 april, tue
tue2000:00+25se51377100 0.0 1012810
03:00+25se51471100 0.0 1011900
06:00+25se4136995 0.0 1012921
09:00+28se7126174 0.0 10131161
12:00+31se6105593 0.1 10101522
15:00+28se6126899 1.5 10101196
18:00+24sse51385100 1.6 1011959
21:00+24se51293100 4.4 1012811
21 april, wed
wed2100:00+23se61294100 10.4 1011926
03:00+23ese71296100 51.1 1010861
06:00+23se71494100 14.7 1012797
09:00+24ese61395100 18.4 1013729
12:00+23se61395100 5.0 1012777
15:00+23ese61294100 7.5 1011761
18:00+23ese61295100 4.0 1013687
21:00+23se61395100 7.8 1014712
22 april, thu
thu2200:00+23se6149395 0.0 1012696
03:00+23se8168992 0.3 1010764
06:00+23se6149279 3.1 1013741
09:00+24se61388100 3.7 1014831
12:00+25se61184100 1.9 1013823
15:00+26se61185100 2.2 1011878
18:00+25se51186100 0.0 1012708
21:00+24se3893100 3.3 1014335
23 april, fri
fri2300:00+23se3895100 9.1 1013336
03:00+23se2794100 14.1 1012231
06:00+23se31191100 1.4 1012479
09:00+23se41193100 3.8 1014501
12:00+23se41194100 2.7 1012497
15:00+23se61293100 4.6 1011509
18:00+23se4109097 0.0 1012398
21:00+23se3108897 0.0 1013434